When you browse on this site, cookies collect data to enhance your experience and personalize the content and advertising you see.
Visit our Privacy Policy to learn more. By continuing to use the site, you agree to this use of cookies and data.
  • In Hungary
  • List of Countries
  • For 7 days
  • Water Temperature
  • Satellite Maps
  • Weather Map
  • News
  • Weather Widgets
  • user-avatar
    Login

    Hourly Weather Nyandoma

    Today, 18 January, Friday

    Time Temperature Precipitation Wind Pressure Humidity
    00:00 -9°C° 0.5 mm 3 mps 715 mmHg 94%
    01:00 -8°C° 0.6 mm 3 mps 715 mmHg 94%
    02:00 -8°C° 0.6 mm 3 mps 714 mmHg 95%
    03:00 -6°C° 0 mm 2 mps 714 mmHg 96%
    04:00 -5°C° 0.4 mm 2 mps 714 mmHg 96%
    05:00 -5°C° 0.4 mm 2 mps 714 mmHg 96%
    06:00 -2°C° 0.4 mm 1 mps 714 mmHg 97%
    07:00 -4°C° 0.1 mm 2 mps 714 mmHg 94%
    08:00 -5°C° 0.1 mm 3 mps 715 mmHg 91%
    09:00 -7°C° 0 mm 4 mps 715 mmHg 89%
    10:00 -7°C° 0.1 mm 4 mps 716 mmHg 88%
    11:00 -8°C° 0.1 mm 5 mps 716 mmHg 87%
    12:00 -8°C° 0.1 mm 5 mps 717 mmHg 85%
    13:00 -10°C° 0.1 mm 5 mps 718 mmHg 85%
    14:00 -10°C° 0.1 mm 5 mps 718 mmHg 85%
    15:00 -11°C° 0 mm 5 mps 719 mmHg 86%
    16:00 -11°C° 0.1 mm 5 mps 719 mmHg 86%
    17:00 -12°C° 0.1 mm 5 mps 720 mmHg 87%
    18:00 -12°C° 0.1 mm 5 mps 721 mmHg 88%
    19:00 -11°C° 0.1 mm 4 mps 721 mmHg 88%
    20:00 -12°C° 0.1 mm 4 mps 722 mmHg 89%
    21:00 -12°C° 0.1 mm 4 mps 722 mmHg 89%
    22:00 -12°C° 0.1 mm 4 mps 722 mmHg 90%
    23:00 -13°C° 0.1 mm 3 mps 723 mmHg 91%

    Tomorrow, 19 January, Saturday

    Time Temperature Precipitation Wind Pressure Humidity
    00:00 -13°C° 0.1 mm 3 mps 723 mmHg 91%
    01:00 -13°C° 0.1 mm 3 mps 724 mmHg 92%
    02:00 -13°C° 0.1 mm 3 mps 724 mmHg 93%
    03:00 -13°C° 0.1 mm 2 mps 724 mmHg 94%
    04:00 -13°C° 0.1 mm 2 mps 724 mmHg 94%
    05:00 -13°C° 0.1 mm 2 mps 724 mmHg 95%
    06:00 -14°C° 0.1 mm 2 mps 725 mmHg 95%
    07:00 -14°C° 0.1 mm 2 mps 725 mmHg 96%
    08:00 -14°C° 0.1 mm 2 mps 725 mmHg 96%
    09:00 -14°C° 0.1 mm 2 mps 725 mmHg 96%
    10:00 -14°C° 0.1 mm 2 mps 725 mmHg 95%
    11:00 -13°C° 0.1 mm 2 mps 726 mmHg 95%
    12:00 -14°C° 0.1 mm 3 mps 726 mmHg 94%
    13:00 -13°C° 0.1 mm 2 mps 726 mmHg 94%
    14:00 -13°C° 0.1 mm 2 mps 727 mmHg 94%
    15:00 -12°C° 0.1 mm 2 mps 727 mmHg 93%
    16:00 -13°C° 0.1 mm 3 mps 727 mmHg 93%
    17:00 -13°C° 0.1 mm 3 mps 728 mmHg 94%
    18:00 -13°C° 0.1 mm 3 mps 728 mmHg 94%
    19:00 -14°C° 0.1 mm 3 mps 728 mmHg 94%
    20:00 -14°C° 0.1 mm 3 mps 728 mmHg 94%
    21:00 -14°C° 0.1 mm 3 mps 728 mmHg 94%
    22:00 -15°C° 0.1 mm 3 mps 728 mmHg 94%
    23:00 -15°C° 0.1 mm 3 mps 729 mmHg 95%

    Day after tomorrow, 20 January, Sunday

    Time Temperature Precipitation Wind Pressure Humidity
    00:00 -15°C° 0.1 mm 2 mps 729 mmHg 95%
    01:00 -15°C° 0.1 mm 2 mps 729 mmHg 95%
    02:00 -15°C° 0.1 mm 2 mps 729 mmHg 95%
    03:00 -14°C° 0.1 mm 2 mps 729 mmHg 95%
    04:00 -15°C° 0 mm 2 mps 729 mmHg 95%
    05:00 -15°C° 0 mm 2 mps 729 mmHg 95%
    06:00 -15°C° 0 mm 2 mps 729 mmHg 96%
    07:00 -16°C° 0 mm 2 mps 729 mmHg 96%
    08:00 -17°C° 0 mm 2 mps 729 mmHg 97%
    09:00 -16°C° 0 mm 1 mps 729 mmHg 98%
    10:00 -15°C° 0 mm 1 mps 728 mmHg 97%
    11:00 -14°C° 0 mm 1 mps 728 mmHg 97%
    12:00 -13°C° 0 mm 1 mps 728 mmHg 96%
    13:00 -12°C° 0.1 mm 1 mps 728 mmHg 96%
    14:00 -12°C° 0.1 mm 1 mps 727 mmHg 96%
    15:00 -13°C° 0.1 mm 2 mps 727 mmHg 96%
    16:00 -13°C° 0.1 mm 2 mps 727 mmHg 96%
    17:00 -14°C° 0.1 mm 2 mps 726 mmHg 96%
    18:00 -14°C° 0.1 mm 2 mps 726 mmHg 97%
    19:00 -15°C° 0.1 mm 2 mps 726 mmHg 97%
    20:00 -15°C° 0.1 mm 2 mps 726 mmHg 96%
    21:00 -16°C° 0.1 mm 2 mps 726 mmHg 96%
    22:00 -17°C° 0 mm 2 mps 727 mmHg 97%
    23:00 -18°C° 0 mm 2 mps 727 mmHg 97%

    21 January, Monday

    Time Temperature Precipitation Wind Pressure Humidity
    00:00 -19°C° 0 mm 2 mps 727 mmHg 97%
    01:00 -20°C° 0 mm 2 mps 728 mmHg 97%
    02:00 -21°C° 0 mm 2 mps 728 mmHg 97%
    03:00 -23°C° 0 mm 2 mps 729 mmHg 98%
    04:00 -24°C° 0 mm 2 mps 729 mmHg 98%
    05:00 -25°C° 0 mm 2 mps 729 mmHg 98%
    06:00 -25°C° 0 mm 2 mps 729 mmHg 98%
    07:00 -22°C° 0 mm 1 mps 730 mmHg 98%
    08:00 -22°C° 0 mm 1 mps 730 mmHg 98%
    09:00 -22°C° 0 mm 1 mps 730 mmHg 98%
    10:00 -22°C° 0 mm 1 mps 731 mmHg 97%
    11:00 -22°C° 0 mm 1 mps 731 mmHg 97%
    12:00 -21°C° 0 mm 1 mps 732 mmHg 97%
    13:00 -21°C° 0 mm 1 mps 732 mmHg 97%
    14:00 -21°C° 0 mm 1 mps 732 mmHg 97%
    15:00 -22°C° 0 mm 1 mps 733 mmHg 97%
    16:00 -23°C° 0 mm 1 mps 733 mmHg 98%
    17:00 -23°C° 0 mm 1 mps 733 mmHg 98%
    18:00 -24°C° 0 mm 1 mps 734 mmHg 98%
    19:00 -25°C° 0 mm 1 mps 734 mmHg 98%
    20:00 -25°C° 0 mm 1 mps 734 mmHg 98%
    21:00 -25°C° 0 mm 1 mps 734 mmHg 98%
    22:00 -24°C° 0 mm 1 mps 735 mmHg 98%
    23:00 -23°C° 0 mm 1 mps 735 mmHg 98%

    22 January, Tuesday

    Time Temperature Precipitation Wind Pressure Humidity
    00:00 -23°C° 0 mm 1 mps 735 mmHg 98%
    01:00 -21°C° 0 mm 1 mps 735 mmHg 98%
    02:00 -19°C° 0 mm 1 mps 736 mmHg 98%
    03:00 -18°C° 0 mm 1 mps 736 mmHg 98%
    04:00 -19°C° 0 mm 2 mps 736 mmHg 98%
    05:00 -18°C° 0 mm 2 mps 736 mmHg 98%
    06:00 -17°C° 0 mm 2 mps 736 mmHg 98%
    07:00 -18°C° 0 mm 2 mps 736 mmHg 98%
    08:00 -19°C° 0 mm 2 mps 736 mmHg 98%
    09:00 -20°C° 0 mm 2 mps 736 mmHg 98%
    10:00 -18°C° 0.1 mm 2 mps 736 mmHg 97%
    11:00 -17°C° 0.1 mm 2 mps 736 mmHg 97%
    12:00 -16°C° 0.1 mm 2 mps 737 mmHg 96%
    13:00 -16°C° 0 mm 2 mps 736 mmHg 96%
    14:00 -15°C° 0 mm 2 mps 736 mmHg 95%
    15:00 -15°C° 0 mm 2 mps 736 mmHg 95%
    16:00 -16°C° 0 mm 3 mps 736 mmHg 95%
    17:00 -17°C° 0 mm 3 mps 736 mmHg 96%
    18:00 -17°C° 0 mm 3 mps 736 mmHg 96%
    19:00 -18°C° 0 mm 3 mps 736 mmHg 96%
    20:00 -18°C° 0 mm 3 mps 736 mmHg 95%
    21:00 -18°C° 0 mm 3 mps 735 mmHg 95%
    22:00 -19°C° 0 mm 3 mps 735 mmHg 95%
    23:00 -20°C° 0 mm 4 mps 735 mmHg 94%

    23 January, Wednesday

    Time Temperature Precipitation Wind Pressure Humidity
    00:00 -20°C° 0 mm 4 mps 735 mmHg 94%
    01:00 -22°C° 0.1 mm 4 mps 735 mmHg 94%
    02:00 -22°C° 0.1 mm 4 mps 735 mmHg 95%
    03:00 -23°C° 0.1 mm 4 mps 735 mmHg 95%
    04:00 -22°C° 0.1 mm 3 mps 734 mmHg 95%
    05:00 -22°C° 0.1 mm 3 mps 734 mmHg 95%
    06:00 -23°C° 0.1 mm 3 mps 734 mmHg 95%
    07:00 -23°C° 0 mm 3 mps 734 mmHg 95%
    08:00 -23°C° 0 mm 3 mps 735 mmHg 96%
    09:00 -23°C° 0 mm 3 mps 735 mmHg 96%
    10:00 -23°C° 0 mm 3 mps 735 mmHg 96%
    11:00 -22°C° 0 mm 3 mps 735 mmHg 95%
    12:00 -21°C° 0 mm 3 mps 736 mmHg 95%
    13:00 -18°C° 0 mm 2 mps 736 mmHg 95%
    14:00 -18°C° 0 mm 2 mps 736 mmHg 95%
    15:00 -18°C° 0 mm 2 mps 737 mmHg 95%
    16:00 -19°C° 0 mm 2 mps 737 mmHg 96%
    17:00 -20°C° 0 mm 2 mps 737 mmHg 97%
    18:00 -21°C° 0 mm 2 mps 738 mmHg 98%
    19:00 -21°C° 0 mm 2 mps 738 mmHg 99%
    20:00 -23°C° 0 mm 2 mps 738 mmHg 99%
    21:00 -20°C° 0 mm 1 mps 739 mmHg 99%
    22:00 -21°C° 0 mm 1 mps 739 mmHg 99%
    23:00 -21°C° 0 mm 1 mps 739 mmHg 99%
    Show more